Regional Weather Roundup
Issued by NWS San Angelo, TX

Home | Current Version | Previous Version | Text Only | Print | Product List | Glossary On
Versions: 1 2 3 4 5 6 7 8 9 10 11 12 13 14 15 16 17 18 19 20 21 22 23 24 25 26 27 28 29 30 31 32 33 34 35 36 37 38 39 40 41 42 43 44 45 46 47 48 49 50
000
ASUS44 KSJT 281410
RWRSJT
WEST CENTRAL TEXAS REGIONAL WEATHER ROUNDUP
NATIONAL WEATHER SERVICE SAN ANGELO TX
800 AM CST WED JAN 28 2015

NOTE: "FAIR" INDICATES FEW OR NO CLOUDS BELOW 12,000 FEET WITH NO
SIGNIFICANT WEATHER AND/OR OBSTRUCTIONS TO VISIBILITY.

TXZ049-054-064>066-071>073-076>078-098-099-113-114-127-128-139-140-
154-155-168>170-281500
...LOCATIONS ACROSS WEST CENTRAL TEXAS...

CITY           SKY/WX    TMP DP  RH WIND       PRES   REMARKS
SAN ANGELO     CLEAR     44  37  76 W3        30.14R
ABILENE        CLEAR     52  37  56 S8        30.10S
DYESS AFB      CLEAR     55  39  56 S8        30.09S
JUNCTION       CLEAR     38  34  85 CALM      30.15R
SWEETWATER     CLEAR     56  35  45 S13       30.14S
BROWNWOOD      CLEAR     37  36  93 CALM      30.15R
COLEMAN        SUNNY     51  39  64 SW3       30.13R
SONORA         CLEAR     37  36  93 CALM      30.21R
OZONA          FAIR      37  34  87 CALM      30.20R
BRADY          CLEAR     52  34  50 CALM      30.13S
$$

TEXAS PANHANDLE/OKLAHOMA PANHANDLE

CITY           SKY/WX    TMP DP  RH WIND       PRES   REMARKS
AMARILLO       PTCLDY    51  36  56 SW14      30.03R
BORGER         CLEAR     48  36  63 SW9       30.00R
CANADIAN       PTCLDY    50  39  64 NW3       29.96R
DALHART        MOCLDY    39  31  72 W7        30.01S WCI  34
DUMAS          MOSUNNY   42  35  75 SW12      30.00S WCI  36
GUYMON         NOT AVBL
HEREFORD       PTSUNNY   54  40  57 W17       30.05F
PAMPA          MOSUNNY   47  37  67 W10       30.01R
PERRYTON         N/A     45  37  72 W15       29.94F WCI  38
$$

SOUTHERN PANHANDLE/SOUTH PLAINS/ROLLING PLAINS

CITY           SKY/WX    TMP DP  RH WIND       PRES   REMARKS
LUBBOCK        PTCLDY    39  35  86 W8        30.10S WCI  33
SNYDER         CLEAR    N/A N/A N/A SW6       30.13R
CHILDRESS      CLEAR     49  36  61 W10       30.03F
SEMINOLE       SUNNY     46  38  74 W10       30.15S
$$

PERMIAN BASIN

CITY           SKY/WX    TMP DP  RH WIND       PRES   REMARKS
MIDLAND        CLEAR     49  41  74 SW7       30.14S
ODESSA         CLEAR     44  36  73 S6        30.15R
WINK           CLEAR     39  33  79 CALM      30.15R
$$

FAR WEST/SOUTHWEST MOUNTAINS/TRANS PECOS

CITY           SKY/WX    TMP DP  RH WIND       PRES   REMARKS
ALPINE         MOSUNNY   50  44  78 W5        30.30R
DRYDEN           N/A     50  40  68 W5        30.15R
EL PASO        PTCLDY    44  38  79 NE3       30.21R
FORT STOCKTON  CLEAR     51  44  77 SW10      30.18R
GUADALUPE PASS MOCLDY    49  39  68 SW14      30.24R
MARFA          PTCLDY    36  34  93 NE6       30.27S WCI  31
PECOS          SUNNY     39  37  91 CALM      30.17R
$$

DALLAS/FORT WORTH METROPLEX

CITY           SKY/WX    TMP DP  RH WIND       PRES   REMARKS
DFW AIRPORT    PTCLDY    50  41  71 S8        30.10R
FTW MEACHAM    CLEAR     49  41  74 S8        30.10R
DAL-EXECUTIVE  CLEAR     56  41  57 S6        30.10R
GRAND PRAIRIE  CLEAR     54  43  66 S9        30.12
ADDISON        CLEAR     54  41  62 SE7       30.12
MESQUITE       SUNNY     45  39  81 SE6       30.12S
LANCASTER      SUNNY     45  39  79 CALM      30.13S
$$

NORTH CENTRAL TEXAS

CITY           SKY/WX    TMP DP  RH WIND       PRES   REMARKS
SHRMAN/DENISON SUNNY     50  43  76 S8        30.10S
GAINESVILLE    CLEAR     46  39  77 S5        30.11R
BRIDGEPORT     SUNNY     38  33  81 CALM      30.10S
DENTON         CLEAR     43  38  82 SE5       30.09R
WAXAHACHIE     SUNNY     48  42  81 S6        30.13R
GRANBURY       SUNNY     43  40  88 CALM      30.12S
$$

WESTERN NORTH TEXAS

CITY           SKY/WX    TMP DP  RH WIND       PRES   REMARKS
WICHITA FALLS  CLEAR     47  38  71 SW12      30.05R
VERNON         MOSUNNY   42  33  70 SW8       30.05S WCI  37
BRECKENRIDGE   SUNNY     51  38  59 S12       30.09S
COMANCHE       CLEAR     54  39  57 SW6       30.13R
$$

CENTRAL AND SOUTH CENTRAL TEXAS

CITY           SKY/WX    TMP DP  RH WIND       PRES   REMARKS
AUSTIN/BERGSTM PTCLDY    43  39  86 CALM      30.16R
WACO           CLEAR     41  38  89 CALM      30.14R
HILLSBORO      SUNNY     46  39  76 SE5       30.13S
TEMPLE         CLEAR     45  37  76 SE3       30.13S
KILLEEN-GRAY   CLEAR     57  37  46 S6        30.14R
FORT HOOD      CLEAR     55  38  51 MISG      30.13R
GEORGETOWN     CLEAR     41  36  81 CALM      30.14R
LAGO VISTA     FAIR      59  35  40 W7        30.15S
SAN MARCOS     CLEAR     43  37  81 CALM      30.16R
NEW BRAUNFELS  CLEAR     43  39  86 CALM      30.15R
RANDOLPH AFB   CLEAR     44  38  81 NW6       30.16R
SAN ANTONIO    PTCLDY    45  38  76 NW6       30.16R
STINSON        CLEAR     44  39  82 CALM      30.15R
PLEASANTON     NOT AVBL
LA GRANGE      CLEAR     45  42  91 CALM      30.15R
GIDDINGS       SUNNY     45  42  90 CALM      30.19R
$$

EAST TEXAS

CITY           SKY/WX    TMP DP  RH WIND       PRES   REMARKS
PARIS          CLEAR     43  36  75 E10       30.15R WCI  37
CLARKSVILLE    NOT AVBL
TYLER          CLEAR     50  43  77 S8        30.15R
LONGVIEW       CLEAR     43  40  89 SE3       30.17R
PALESTINE      SUNNY     53  45  74 SE5       30.17R
NACOGDOCHES    CLEAR     41  37  87 CALM      30.19R
$$

TEXAS HILL COUNTRY AND EDWARDS PLATEAU

CITY           SKY/WX    TMP DP  RH WIND       PRES   REMARKS
LLANO          SUNNY     37  36  93 CALM      30.19R
HORSESHOE BAY  FAIR      40  37  91 CALM      30.15S
KERRVILLE      CLEAR     38  36  91 CALM      30.17S
FREDERICKSBRG  CLEAR     38  35  90 CALM      30.16R
ROCKSPRINGS    NOT AVBL
HONDO          CLEAR     42  37  82 N6        30.18R WCI  38
UVALDE         SUNNY     46  39  76 NE5       30.16R
DEL RIO        CLEAR     46  38  73 W5        30.13R
$$

SOUTHEAST TEXAS

CITY           SKY/WX    TMP DP  RH WIND       PRES   REMARKS
COLLEGE STN    CLEAR     49  42  77 CALM      30.16R
CALDWELL       SUNNY     48  43  81 CALM      30.19R
CROCKETT       SUNNY     48  46  93 CALM      30.20S
BRENHAM        CLEAR     46  44  91 CALM      30.17R
HUNTSVILLE     CLEAR     54  46  74 S3        30.16R
CONROE         CLEAR     42  40  92 CALM      30.18R
HOUSTON BUSH   PTCLDY    47  46  97 SE3       30.18R
HOUSTON HOBBY  CLEAR     49  46  90 CALM      30.17R
PERLAND        CLEAR     49  46  90 CALM      30.19R
WHARTON        SUNNY     44  43  97 CALM      30.18R
$$

THE UPPER TEXAS COAST

CITY           SKY/WX    TMP DP  RH WIND       PRES   REMARKS
ORANGE         SUNNY     42  42  99 CALM      30.22R
PORT ARTHUR    CLEAR     52  49  89 E7        30.20R FOG
GALVESTON      CLEAR     53  51  93 CALM      30.19R
ANGLETON       CLEAR     46  46 100 CALM      30.18R
BAY CITY       SUNNY     46  46 100 CALM      30.18R
$$

TEXAS COASTAL BEND, RIO GRANDE PLAINS DEEP SOUTH TEXAS

CITY           SKY/WX    TMP DP  RH WIND       PRES   REMARKS
VICTORIA       CLEAR     49  45  86 CALM      30.18R
BEEVILLE       FAIR      48  42  79 CALM      30.16R
ROCKPORT         N/A     50  46  86 S3        30.17R
PORT ARANSAS   SUNNY     51  50  95 CALM      30.17R
PORT LAVACA    SUNNY     47  46  97 S3        30.18R
CORPUS CHRISTI FOG       46  45  96 S6        30.17R VSB 1/4
KINGSVILLE NAS FOG       49  49 100 S3        30.17R VSB 1/16
COTULLA        CLEAR     52  42  69 SE5       30.15R
LAREDO         CLEAR     52  43  71 E7        30.16R
BROWNSVILLE    FOG       55  54  96 SE3       30.18R VSB<1/4
PORT ISABEL    FOG       55  54  96 S6        30.17R VSB 1/4
HEBBRONVILLE   SUNNY     51  38  59 SW3       30.16R
MCALLEN        CLEAR     52  50  93 SE5       30.17R
WESLACO        CLEAR     55  53  92 S5        30.17R FOG
FALFURRIAS     CLOUDY    44  43  95 CALM      30.16R VSB<1/4
EDINBURG       SUNNY     53  51  93 S3        30.16S FOG
$$



USA.gov is the U.S. government's official web portal to all federal, state and local government web resources and services.